Location: Shenandoah County Park
(38.9356°N, 78.4524°W)
Time: 11:36:05
(UTC-05:00)

deb Explorer IX - All Passes

Search period start: 11 December 2023 00:00
Search period end: 21 December 2023 00:00
Orbit: 524 x 933 km, 38.7° (Epoch: 10 December)

Date Brightness Start Highest point End Pass type
(mag) Time Alt. Az. Time Alt. Az. Time Alt. Az.
11 Dec - 00:52:36 10° WSW 00:55:18 16° SSW 00:58:09 10° S night (unlit)
11 Dec - 17:03:27 10° S 17:05:48 15° SSE 17:08:07 10° ESE daylight
11 Dec - 18:46:02 10° WSW 18:49:57 50° SSE 18:53:50 10° E visible
11 Dec - 20:30:30 10° W 20:34:29 89° S 20:38:36 10° E visible
11 Dec - 22:15:06 10° W 22:19:06 61° SSW 22:23:24 10° ESE night (unlit)
12 Dec - 00:00:11 10° W 00:03:26 21° SSW 00:06:55 10° SSE night (unlit)
12 Dec - 17:54:13 10° SW 17:58:04 38° SSE 18:01:48 10° E visible
12 Dec - 19:38:31 10° W 19:42:32 85° S 19:46:33 10° E visible
12 Dec - 21:23:10 10° W 21:27:09 74° SSW 21:31:20 10° ESE night (unlit)
12 Dec - 23:07:59 10° W 23:11:32 28° SSW 23:15:20 10° SSE night (unlit)
13 Dec - 17:02:29 10° SW 17:06:11 29° SSE 17:09:41 10° E daylight
13 Dec - 18:46:29 10° WSW 18:50:33 76° S 18:54:31 10° E visible
13 Dec - 20:31:11 10° W 20:35:10 83° S 20:39:15 10° E visible
13 Dec - 22:15:54 10° W 22:19:37 37° SSW 22:23:34 10° SE night (unlit)
14 Dec - 16:10:53 10° SSW 16:14:16 21° SSE 16:17:27 10° E daylight
14 Dec - 17:54:25 10° WSW 17:58:35 63° SSE 18:02:31 10° E visible
14 Dec - 19:39:08 10° W 19:43:10 89° S 19:47:10 10° E visible
14 Dec - 21:23:50 10° W 21:27:41 48° SSW 21:31:40 10° SE night (unlit)
14 Dec - 23:09:36 10° WSW 23:11:50 14° SSW 23:14:10 10° S night (unlit)
15 Dec - 15:19:33 10° S 15:22:20 16° SSE 15:24:57 10° ESE daylight
15 Dec - 17:02:20 10° WSW 17:06:35 50° SSE 17:10:30 10° E daylight
15 Dec - 18:47:00 10° W 18:51:08 89° SSE 18:55:07 10° E visible
15 Dec - 20:31:46 10° W 20:35:42 62° SSW 20:39:41 10° ESE visible
15 Dec - 22:16:58 10° WSW 22:19:57 20° SSW 22:23:01 10° SSE night (unlit)
16 Dec - 14:28:56 10° SSE 14:30:22 11° SE 14:31:45 10° SE daylight
16 Dec - 16:10:18 10° SW 16:14:33 39° SSE 16:18:27 10° E daylight
16 Dec - 17:54:47 10° W 17:59:04 84° S 18:03:04 10° E visible
16 Dec - 19:39:38 10° W 19:43:41 75° S 19:47:39 10° ESE visible
16 Dec - 21:24:35 10° W 21:28:01 27° SSW 21:31:29 10° SSE night (unlit)
17 Dec - 15:18:21 10° SW 15:22:30 30° SSE 15:26:18 10° E daylight
17 Dec - 17:02:31 10° WSW 17:06:58 75° S 17:11:03 10° E daylight
17 Dec - 18:47:26 10° W 18:51:37 85° S 18:55:35 10° E visible
17 Dec - 20:32:19 10° W 20:36:02 37° SSW 20:39:45 10° SE visible
18 Dec - 14:26:32 10° SSW 14:30:26 23° SSE 14:34:01 10° E daylight
18 Dec - 16:10:13 10° WSW 16:14:50 63° SSE 16:19:01 10° E daylight
18 Dec - 17:55:09 10° W 17:59:29 89° S 18:03:31 10° E visible
18 Dec - 19:40:03 10° W 19:44:01 50° SSW 19:47:51 10° ESE visible
18 Dec - 21:25:58 10° WSW 21:28:05 14° SSW 21:30:13 10° S night (unlit)
19 Dec - 13:34:57 10° S 13:38:20 18° SSE 13:41:29 10° ESE daylight
19 Dec - 15:17:56 10° WSW 15:22:41 51° SSE 15:26:56 10° E daylight
19 Dec - 17:02:46 10° W 17:07:19 89° SSW 17:11:27 10° E daylight
19 Dec - 18:47:45 10° W 18:51:56 65° SSW 18:55:53 10° ESE visible
19 Dec - 20:33:07 10° W 20:36:08 20° SSW 20:39:07 10° SSE visible
20 Dec - 12:43:54 10° S 12:46:12 13° SE 12:48:24 10° ESE daylight
20 Dec - 14:25:41 10° SW 14:30:30 41° SSE 14:34:48 10° E daylight
20 Dec - 16:10:20 10° W 16:15:06 83° S 16:19:23 10° E daylight
20 Dec - 17:55:24 10° W 17:59:48 78° S 18:03:51 10° ESE visible
20 Dec - 19:40:32 10° W 19:44:07 29° SSW 19:47:36 10° SE visible
